Regional Weather Roundup
Issued by NWS

Home | Current Version | Previous Version | Graphics & Text | Print | Product List | Glossary On
Versions: 1 2 3 4 5 6 7 8 9 10 11 12 13 14 15 16 17 18 19 20 21 22 23 24 25 26 27 28 29 30 31 32 33 34 35 36 37 38 39 40 41 42 43 44 45 46 47 48 49 50
000
ASUS43 KTOP 140559
RWRKS

WEATHER ROUNDUP FOR KANSAS
NATIONAL WEATHER SERVICE GOODLAND KS
1200 AM CST SUN FEB 14 2016

NOTE:  "FAIR" INDICATES FEW OR NO CLOUDS BELOW 12,000 FEET WITH NO
SIGNIFICANT WEATHER AND/OR OBSTRUCTIONS TO VISIBILITY.

KSZ001>006-013>018-027>032-041>047-140700-
NORTHWEST KANSAS

CITY           SKY/WX    TMP DP  RH WIND       PRES   REMARKS
GOODLAND       CLEAR     27  25  92 NW8       30.05R
6HR MIN TEMP:  26; 6HR MAX TEMP:  32;

HAYS           CLOUDY    28  12  50 N10       30.00R WCI  19
HILL CITY      CLOUDY    28  20  71 NW12      30.07R WCI  18
6HR MIN TEMP:  25; 6HR MAX TEMP:  33;

RUSSELL        PTCLDY    29  16  58 CALM      29.98S
6HR MIN TEMP:  29; 6HR MAX TEMP:  33;

$$

KSZ061>065-074>080-084>089-140700-
SOUTHWEST KANSAS

CITY           SKY/WX    TMP DP  RH WIND       PRES   REMARKS
DODGE CITY     CLOUDY    30  23  75 SE14      29.91F WCI  19
6HR MIN TEMP:  29; 6HR MAX TEMP:  42;

ELKHART          N/A     33  20  59 NW13        N/A  WCI  24
GARDEN CITY    CLOUDY    27  22  81 N10       29.94R WCI  17
6HR MIN TEMP:  27; 6HR MAX TEMP:  48;

GREAT BEND     CLOUDY    32  14  47 SE8       29.96R
LIBERAL        CLEAR     36  27  69 N8        29.89R
$$

KSZ066>073-081>083-090>101-140700-
SOUTHEAST KANSAS

CITY           SKY/WX    TMP DP  RH WIND       PRES   REMARKS
CHANUTE        CLOUDY    30  10  43 E12       30.09F WCI  20
6HR MIN TEMP:  30; 6HR MAX TEMP:  34;

COFFEYVILLE    CLEAR     31  17  56 E6        30.10F
6HR MIN TEMP:  30; 6HR MAX TEMP:  42;

HUTCHINSON     CLOUDY    28  11  48 SE10      29.97F WCI  19
6HR MIN TEMP:  28; 6HR MAX TEMP:  40;

MEDICINE LODGE   N/A     37  23  56 E13G21    29.93F WCI  29
NEWTON         CLOUDY    25   7  46 SE14      29.99F WCI  13
PARSONS        CLEAR     33  13  43 E6        30.10F
6HR MIN TEMP:  32; 6HR MAX TEMP:  41;

WICHITA INTL   CLOUDY    30  11  45 E13       30.00F WCI  20
6HR MIN TEMP:  30; 6HR MAX TEMP:  41;

WICHITA JABRA  CLOUDY    26  10  50 SE10      29.99F WCI  16
6HR MIN TEMP:  26; 6HR MAX TEMP:  39;

WINFIELD       CLEAR     36  16  44 SE8       30.02F
6HR MIN TEMP:  35; 6HR MAX TEMP:  45;

$$

KSZ007>012-019>026-033>040-048>060-102>105-140700-
NORTHEAST KANSAS

CITY           SKY/WX    TMP DP  RH WIND       PRES   REMARKS
CONCORDIA      PTCLDY    20   7  57 E8        30.06S
6HR MIN TEMP:  20; 6HR MAX TEMP:  26;

EMPORIA        PTCLDY    21   9  59 E10       30.07F WCI  10
6HR MIN TEMP:  20; 6HR MAX TEMP:  28;

LAWRENCE       CLOUDY    22   4  46 E8        30.18S
6HR MIN TEMP:  22; 6HR MAX TEMP:  23;

MANHATTAN      CLOUDY    22   7  52 E12       30.09F WCI  10
6HR MIN TEMP:  21; 6HR MAX TEMP:  27;

OLATHE IND     CLOUDY    22   4  46 E12       30.15F WCI  10
6HR MIN TEMP:  21; 6HR MAX TEMP:  23;

OLATHE EXE     CLOUDY    22   3  44 E10       30.15F WCI  11
6HR MIN TEMP:  20; 6HR MAX TEMP:  22;

SALINA         CLOUDY    26   9  48 E13       30.04S WCI  15
6HR MIN TEMP:  26; 6HR MAX TEMP:  36;

TOPEKA BILLARD CLOUDY    23   4  44 E10       30.15F WCI  12
6HR MIN TEMP:  23; 6HR MAX TEMP:  24;

TOPEKA FORBES  CLOUDY    23   6  48 E10       30.14R WCI  12
6HR MIN TEMP:  22; 6HR MAX TEMP:  24;

$$



USA.gov is the U.S. government's official web portal to all federal, state and local government web resources and services.